Tracking 35274 objects as of 12-Sep-2026
HD Live streaming from Space Station
objects crossing your sky now

STARLINK-30595

Track STARLINK-30595 now!
10-day predictions
STARLINK-30595 is classified as:


NORAD ID: 58111
Int'l Code: 2023-161Q
Launch date: October 21, 2023
Source: United States (US)
Launch site: AIR FORCE WESTERN TEST RANGE (AFWTR)
Your satellite tracking list
Your tracking list is empty




NASA's NSSDC Master Catalog

Two Line Element Set (TLE):
1 58111U 23161Q   26254.67485486  .00008812  00000-0  27162-3 0  9996
2 58111  53.1611  21.1682 0001953  42.3409 317.7744 15.34401396162902
Source of the keplerian elements: AFSPC